Check out our new BloomSky Weather System.

Active alerts


No alerts


Thunder radar  blitzortung!


Rain radar more information rain snow radar


Visit our other weather sites:

Template documentation
and downloads

And another site



Weather Underground History page Text

Daily Summary for November 11, 2017 Units:  English    Metric   Both
« Previous Day
Next Day »
Daily Weekly Monthly Yearly Custom
  High: Low: Average:
Temperature: 76.3 °F 56.8 °F 65.4 °F
Dew Point: 62.8 °F 50.7 °F 56.9 °F
Humidity: 85 % 61 % 75 %
Wind Speed: 9.0 mph 0.0 mph 1.9 mph
Wind Gust: 13.0 mph - -
Wind:- - SE
Pressure: 30.20 in 30.08 in -
Precipitation: 0.00 in    
Historical Graphs
 
 
Tabular Data for November 11, 2017
Time Temperature Dew Point Pressure Wind Wind Speed Wind Gust Humidity Rainfall Rate (Hourly)
00:01 61.9 °F 52.7 °F 30.17 in Calm   2.0 mph 72 % 0.00 in
00:06 61.7 °F 52.5 °F 30.17 in SE 2.0 mph 2.0 mph 72 % 0.00 in
00:11 61.5 °F 52.3 °F 30.17 in Calm   2.0 mph 72 % 0.00 in
00:16 61.5 °F 52.3 °F 30.17 in Calm   2.0 mph 72 % 0.00 in
00:21 61.5 °F 52.3 °F 30.17 in Calm   2.0 mph 72 % 0.00 in
00:26 61.3 °F 52.2 °F 30.17 in Calm   1.0 mph 72 % 0.00 in
00:31 61.3 °F 52.2 °F 30.17 in Calm   2.0 mph 72 % 0.00 in
00:36 61.3 °F 52.7 °F 30.17 in Calm   2.0 mph 73 % 0.00 in
00:41 61.3 °F 52.7 °F 30.17 in Calm   2.0 mph 73 % 0.00 in
00:46 61.2 °F 52.5 °F 30.17 in Calm   1.0 mph 73 % 0.00 in
00:51 61.2 °F 52.9 °F 30.17 in Calm   1.0 mph 74 % 0.00 in
00:56 61.0 °F 52.3 °F 30.17 in Calm   1.0 mph 73 % 0.00 in
01:01 60.8 °F 52.5 °F 30.17 in Calm   1.0 mph 74 % 0.00 in
01:06 60.8 °F 52.5 °F 30.17 in Calm   1.0 mph 74 % 0.00 in
01:11 60.8 °F 52.5 °F 30.17 in Calm   1.0 mph 74 % 0.00 in
01:16 60.8 °F 52.5 °F 30.17 in Calm   1.0 mph 74 % 0.00 in
01:21 60.8 °F 52.5 °F 30.17 in Calm   1.0 mph 74 % 0.00 in
01:26 60.6 °F 52.7 °F 30.17 in Calm   1.0 mph 75 % 0.00 in
01:31 60.6 °F 52.7 °F 30.17 in Calm   1.0 mph 75 % 0.00 in
01:36 60.4 °F 52.5 °F 30.17 in Calm   1.0 mph 75 % 0.00 in
01:41 60.4 °F 52.5 °F 30.17 in Calm   1.0 mph 75 % 0.00 in
01:46 60.4 °F 52.9 °F 30.17 in Calm   1.0 mph 76 % 0.00 in
01:51 60.4 °F 52.9 °F 30.17 in Calm   1.0 mph 76 % 0.00 in
01:56 60.4 °F 52.9 °F 30.16 in Calm   1.0 mph 76 % 0.00 in
02:01 60.3 °F 52.7 °F 30.16 in Calm   1.0 mph 76 % 0.00 in
02:06 60.3 °F 52.7 °F 30.16 in Calm   1.0 mph 76 % 0.00 in
02:11 60.1 °F 52.9 °F 30.16 in Calm   1.0 mph 77 % 0.00 in
02:16 59.9 °F 52.7 °F 30.16 in Calm   1.0 mph 77 % 0.00 in
02:21 59.7 °F 52.5 °F 30.16 in Calm   1.0 mph 77 % 0.00 in
02:26 59.4 °F 52.5 °F 30.16 in Calm   1.0 mph 78 % 0.00 in
02:31 59.2 °F 52.7 °F 30.16 in Calm   1.0 mph 79 % 0.00 in
02:36 59.0 °F 52.5 °F 30.16 in Calm     79 % 0.00 in
02:41 58.8 °F 52.7 °F 30.16 in Calm     80 % 0.00 in
02:46 58.8 °F 52.7 °F 30.16 in Calm     80 % 0.00 in
02:51 58.8 °F 53.1 °F 30.16 in Calm     81 % 0.00 in
02:56 58.8 °F 53.1 °F 30.16 in Calm   1.0 mph 81 % 0.00 in
03:01 58.8 °F 53.1 °F 30.16 in Calm   1.0 mph 81 % 0.00 in
03:06 58.8 °F 53.1 °F 30.15 in Calm   1.0 mph 81 % 0.00 in
03:11 58.6 °F 52.9 °F 30.15 in ESE 1.0 mph 1.0 mph 81 % 0.00 in
03:16 58.6 °F 52.9 °F 30.15 in Calm   1.0 mph 81 % 0.00 in
03:21 58.6 °F 52.9 °F 30.15 in Calm   1.0 mph 81 % 0.00 in
03:26 58.5 °F 52.7 °F 30.14 in Calm   1.0 mph 81 % 0.00 in
03:31 58.5 °F 52.7 °F 30.14 in Calm   2.0 mph 81 % 0.00 in
03:36 58.3 °F 52.5 °F 30.14 in East 1.0 mph 2.0 mph 81 % 0.00 in
03:41 58.3 °F 52.5 °F 30.15 in Calm   3.0 mph 81 % 0.00 in
03:46 57.9 °F 52.2 °F 30.15 in Calm   3.0 mph 81 % 0.00 in
03:51 57.7 °F 52.0 °F 30.14 in Calm   3.0 mph 81 % 0.00 in
03:56 57.6 °F 52.2 °F 30.15 in Calm   1.0 mph 82 % 0.00 in
04:01 57.4 °F 52.0 °F 30.14 in Calm   1.0 mph 82 % 0.00 in
04:06 57.4 °F 52.3 °F 30.14 in Calm   1.0 mph 83 % 0.00 in
04:11 57.2 °F 52.2 °F 30.14 in Calm   1.0 mph 83 % 0.00 in
04:16 57.0 °F 52.0 °F 30.14 in Calm   1.0 mph 83 % 0.00 in
04:21 57.0 °F 52.0 °F 30.15 in Calm   1.0 mph 83 % 0.00 in
04:26 57.0 °F 52.2 °F 30.14 in Calm   1.0 mph 84 % 0.00 in
04:31 57.2 °F 52.3 °F 30.15 in Calm   1.0 mph 84 % 0.00 in
04:36 57.4 °F 52.3 °F 30.14 in Calm   1.0 mph 83 % 0.00 in
04:37 57.4 °F 52.3 °F 30.15 in Calm   1.0 mph 83 % 0.00 in
04:42 57.4 °F 52.3 °F 30.14 in Calm   1.0 mph 83 % 0.00 in
04:47 57.4 °F 52.3 °F 30.14 in Calm   1.0 mph 83 % 0.00 in
04:52 57.6 °F 52.5 °F 30.14 in Calm   1.0 mph 83 % 0.00 in
04:57 57.6 °F 52.2 °F 30.14 in Calm   2.0 mph 82 % 0.00 in
05:02 57.6 °F 52.2 °F 30.14 in Calm   2.0 mph 82 % 0.00 in
05:07 57.7 °F 52.3 °F 30.15 in Calm   2.0 mph 82 % 0.00 in
05:12 57.7 °F 52.0 °F 30.14 in Calm   2.0 mph 81 % 0.00 in
05:17 57.7 °F 52.0 °F 30.14 in Calm   2.0 mph 81 % 0.00 in
05:22 57.7 °F 52.0 °F 30.14 in NE 1.0 mph 2.0 mph 81 % 0.00 in
05:28 57.7 °F 52.0 °F 30.14 in Calm   2.0 mph 81 % 0.00 in
05:32 57.6 °F 51.8 °F 30.14 in East 1.0 mph 2.0 mph 81 % 0.00 in
05:37 57.6 °F 51.4 °F 30.15 in Calm   3.0 mph 80 % 0.00 in
05:43 57.6 °F 51.4 °F 30.14 in SE 1.0 mph 4.0 mph 80 % 0.00 in
05:53 57.7 °F 51.6 °F 30.14 in Calm   4.0 mph 80 % 0.00 in
05:58 57.6 °F 51.4 °F 30.15 in Calm   3.0 mph 80 % 0.00 in
06:03 57.6 °F 51.4 °F 30.15 in Calm   3.0 mph 80 % 0.00 in
06:08 57.6 °F 51.4 °F 30.15 in Calm   2.0 mph 80 % 0.00 in
06:13 57.6 °F 51.4 °F 30.15 in Calm   2.0 mph 80 % 0.00 in
06:18 57.6 °F 51.4 °F 30.15 in Calm   2.0 mph 80 % 0.00 in
06:23 57.4 °F 51.3 °F 30.16 in Calm   2.0 mph 80 % 0.00 in
06:28 57.2 °F 51.1 °F 30.16 in Calm   1.0 mph 80 % 0.00 in
06:33 57.0 °F 51.3 °F 30.16 in NNW 1.0 mph 1.0 mph 81 % 0.00 in
06:38 56.8 °F 51.1 °F 30.16 in Calm   1.0 mph 81 % 0.00 in
06:43 56.8 °F 51.1 °F 30.16 in Calm   1.0 mph 81 % 0.00 in
06:48 56.8 °F 51.1 °F 30.16 in NE 1.0 mph 2.0 mph 81 % 0.00 in
06:53 56.8 °F 51.1 °F 30.16 in NE 1.0 mph 2.0 mph 81 % 0.00 in
06:58 56.8 °F 51.1 °F 30.16 in Calm   3.0 mph 81 % 0.00 in
07:03 56.8 °F 51.1 °F 30.16 in North 1.0 mph 3.0 mph 81 % 0.00 in
07:05 57.0 °F 51.3 °F 30.17 in Calm   3.0 mph 81 % 0.00 in
07:10 57.0 °F 50.9 °F 30.17 in NNE 2.0 mph 3.0 mph 80 % 0.00 in
07:15 57.0 °F 50.9 °F 30.17 in East 1.0 mph 3.0 mph 80 % 0.00 in
07:20 57.2 °F 50.7 °F 30.17 in East 1.0 mph 3.0 mph 79 % 0.00 in
07:25 57.4 °F 50.9 °F 30.17 in Calm   4.0 mph 79 % 0.00 in
07:30 57.6 °F 51.1 °F 30.18 in Calm   4.0 mph 79 % 0.00 in
07:35 57.6 °F 51.1 °F 30.18 in Calm   4.0 mph 79 % 0.00 in
07:40 57.7 °F 51.3 °F 30.18 in NNW 2.0 mph 4.0 mph 79 % 0.00 in
07:45 57.7 °F 50.9 °F 30.18 in Calm   4.0 mph 78 % 0.00 in
07:46 57.9 °F 51.1 °F 30.18 in Calm   4.0 mph 78 % 0.00 in
07:51 57.9 °F 50.7 °F 30.18 in East 1.0 mph 6.0 mph 77 % 0.00 in
07:56 58.3 °F 51.4 °F 30.19 in Calm   6.0 mph 78 % 0.00 in
08:01 58.5 °F 51.3 °F 30.19 in ESE 1.0 mph 6.0 mph 77 % 0.00 in
08:06 58.6 °F 51.4 °F 30.19 in Calm   3.0 mph 77 % 0.00 in
08:10 58.6 °F 51.1 °F 30.19 in Calm   4.0 mph 76 % 0.00 in
08:15 58.8 °F 51.3 °F 30.19 in Calm   4.0 mph 76 % 0.00 in
08:20 59.0 °F 51.4 °F 30.19 in SE 1.0 mph 4.0 mph 76 % 0.00 in
08:25 59.2 °F 51.6 °F 30.19 in SE 2.0 mph 3.0 mph 76 % 0.00 in
08:30 59.4 °F 51.4 °F 30.19 in NNW 1.0 mph 6.0 mph 75 % 0.00 in
08:35 59.4 °F 51.4 °F 30.19 in SE 1.0 mph 6.0 mph 75 % 0.00 in
08:40 59.4 °F 51.4 °F 30.20 in Calm   6.0 mph 75 % 0.00 in
08:45 59.5 °F 51.6 °F 30.19 in ENE 2.0 mph 4.0 mph 75 % 0.00 in
08:50 60.1 °F 52.2 °F 30.19 in Calm   4.0 mph 75 % 0.00 in
08:55 60.6 °F 52.3 °F 30.19 in ENE 1.0 mph 3.0 mph 74 % 0.00 in
09:00 61.2 °F 52.0 °F 30.19 in SE 2.0 mph 5.0 mph 72 % 0.00 in
09:05 61.5 °F 52.0 °F 30.19 in Calm   8.0 mph 71 % 0.00 in
09:10 61.9 °F 52.0 °F 30.19 in East 1.0 mph 8.0 mph 70 % 0.00 in
09:15 62.1 °F 52.2 °F 30.19 in Calm   8.0 mph 70 % 0.00 in
09:20 62.6 °F 52.3 °F 30.19 in ESE 3.0 mph 4.0 mph 69 % 0.00 in
09:25 63.0 °F 52.7 °F 30.20 in ESE 1.0 mph 4.0 mph 69 % 0.00 in
09:27 63.0 °F 52.7 °F 30.20 in East 3.0 mph 4.0 mph 69 % 0.00 in
09:32 63.0 °F 52.2 °F 30.20 in Calm   6.0 mph 68 % 0.00 in
09:37 63.1 °F 52.0 °F 30.20 in NNE 3.0 mph 6.0 mph 67 % 0.00 in
09:42 63.1 °F 52.3 °F 30.20 in SE 4.0 mph 6.0 mph 68 % 0.00 in
09:47 63.7 °F 53.2 °F 30.20 in NNW 1.0 mph 6.0 mph 69 % 0.00 in
09:52 64.0 °F 52.9 °F 30.20 in ESE 1.0 mph 6.0 mph 67 % 0.00 in
09:57 64.8 °F 53.6 °F 30.19 in East 1.0 mph 6.0 mph 67 % 0.00 in
10:02 64.9 °F 53.2 °F 30.19 in ENE 2.0 mph 6.0 mph 66 % 0.00 in
10:07 65.3 °F 54.5 °F 30.19 in SW 1.0 mph 6.0 mph 68 % 0.00 in
10:12 66.2 °F 54.9 °F 30.19 in ESE 4.0 mph 6.0 mph 67 % 0.00 in
10:17 66.4 °F 54.3 °F 30.19 in SSE 1.0 mph 7.0 mph 65 % 0.00 in
10:23 66.9 °F 55.2 °F 30.19 in Calm   7.0 mph 66 % 0.00 in
10:27 67.3 °F 55.0 °F 30.19 in East 1.0 mph 9.0 mph 65 % 0.00 in
10:33 67.5 °F 56.1 °F 30.18 in SSE 4.0 mph 9.0 mph 67 % 0.00 in
10:38 68.4 °F 57.0 °F 30.19 in SSE 3.0 mph 9.0 mph 67 % 0.00 in
10:43 68.7 °F 56.1 °F 30.18 in ESE 4.0 mph 9.0 mph 64 % 0.00 in
10:48 68.9 °F 56.7 °F 30.18 in SE 3.0 mph 7.0 mph 65 % 0.00 in
10:53 68.9 °F 57.0 °F 30.18 in SE 2.0 mph 9.0 mph 66 % 0.00 in
10:58 69.6 °F 57.7 °F 30.18 in SSE 2.0 mph 9.0 mph 66 % 0.00 in
11:03 70.2 °F 58.3 °F 30.18 in SSE 3.0 mph 9.0 mph 66 % 0.00 in
11:08 70.3 °F 57.2 °F 30.18 in South 2.0 mph 7.0 mph 63 % 0.00 in
11:13 70.5 °F 57.7 °F 30.17 in Calm   8.0 mph 64 % 0.00 in
11:18 70.3 °F 57.6 °F 30.17 in ENE 7.0 mph 8.0 mph 64 % 0.00 in
11:23 70.2 °F 57.4 °F 30.17 in South 5.0 mph 12.0 mph 64 % 0.00 in
11:28 70.5 °F 58.1 °F 30.17 in SSE 6.0 mph 12.0 mph 65 % 0.00 in
11:33 71.2 °F 58.5 °F 30.16 in ESE 4.0 mph 12.0 mph 64 % 0.00 in
11:38 72.0 °F 59.5 °F 30.16 in South 4.0 mph 11.0 mph 65 % 0.00 in
11:43 72.1 °F 58.8 °F 30.16 in SSE 7.0 mph 11.0 mph 63 % 0.00 in
11:48 72.5 °F 59.2 °F 30.16 in SE 2.0 mph 8.0 mph 63 % 0.00 in
11:53 72.7 °F 59.7 °F 30.15 in SE 3.0 mph 8.0 mph 64 % 0.00 in
11:58 72.9 °F 59.5 °F 30.15 in South 5.0 mph 9.0 mph 63 % 0.00 in
12:03 72.7 °F 59.7 °F 30.15 in ESE 4.0 mph 9.0 mph 64 % 0.00 in
12:08 72.7 °F 59.7 °F 30.14 in East 3.0 mph 13.0 mph 64 % 0.00 in
12:13 72.9 °F 59.9 °F 30.14 in ESE 3.0 mph 13.0 mph 64 % 0.00 in
12:18 73.0 °F 60.1 °F 30.14 in SSE 5.0 mph 13.0 mph 64 % 0.00 in
12:23 72.9 °F 59.9 °F 30.13 in SSW 3.0 mph 10.0 mph 64 % 0.00 in
12:28 73.6 °F 60.3 °F 30.13 in South 3.0 mph 10.0 mph 63 % 0.00 in
12:33 73.9 °F 61.0 °F 30.13 in South 6.0 mph 10.0 mph 64 % 0.00 in
12:38 74.1 °F 61.2 °F 30.12 in ESE 2.0 mph 10.0 mph 64 % 0.00 in
12:43 74.3 °F 60.8 °F 30.12 in SW 7.0 mph 9.0 mph 63 % 0.00 in
12:48 74.1 °F 60.8 °F 30.12 in South 7.0 mph 13.0 mph 63 % 0.00 in
12:53 74.1 °F 60.8 °F 30.12 in SE 4.0 mph 13.0 mph 63 % 0.00 in
12:58 74.3 °F 60.8 °F 30.12 in SE 7.0 mph 13.0 mph 63 % 0.00 in
13:03 74.3 °F 60.8 °F 30.11 in SSW 3.0 mph 11.0 mph 63 % 0.00 in
13:08 74.7 °F 61.7 °F 30.11 in SSE 5.0 mph 10.0 mph 64 % 0.00 in
13:13 75.2 °F 61.3 °F 30.11 in South 1.0 mph 10.0 mph 62 % 0.00 in
13:18 75.4 °F 61.5 °F 30.10 in SSE 3.0 mph 10.0 mph 62 % 0.00 in
13:23 75.0 °F 61.2 °F 30.10 in ESE 9.0 mph 9.0 mph 62 % 0.00 in
13:28 74.8 °F 61.0 °F 30.10 in SSE 2.0 mph 10.0 mph 62 % 0.00 in
13:33 74.8 °F 61.0 °F 30.10 in East 2.0 mph 10.0 mph 62 % 0.00 in
13:39 74.8 °F 61.3 °F 30.09 in SSE 6.0 mph 10.0 mph 63 % 0.00 in
13:44 75.0 °F 61.5 °F 30.09 in SE 3.0 mph 9.0 mph 63 % 0.00 in
13:49 75.0 °F 61.5 °F 30.09 in SE 5.0 mph 9.0 mph 63 % 0.00 in
13:54 75.4 °F 61.5 °F 30.09 in SSE 6.0 mph 9.0 mph 62 % 0.00 in
13:59 75.6 °F 61.7 °F 30.09 in SSE 4.0 mph 11.0 mph 62 % 0.00 in
14:04 75.6 °F 62.6 °F 30.09 in SSW 3.0 mph 11.0 mph 64 % 0.00 in
14:09 75.6 °F 61.7 °F 30.08 in SE 1.0 mph 11.0 mph 62 % 0.00 in
14:14 75.7 °F 61.3 °F 30.08 in SE 8.0 mph 11.0 mph 61 % 0.00 in
14:19 75.0 °F 61.5 °F 30.08 in South 4.0 mph 11.0 mph 63 % 0.00 in
14:24 75.7 °F 62.8 °F 30.08 in SW 7.0 mph 11.0 mph 64 % 0.00 in
14:29 76.1 °F 62.1 °F 30.08 in SSW 3.0 mph 11.0 mph 62 % 0.00 in
14:34 76.1 °F 62.6 °F 30.08 in SSE 9.0 mph 12.0 mph 63 % 0.00 in
14:39 76.1 °F 62.1 °F 30.08 in SW 5.0 mph 12.0 mph 62 % 0.00 in
14:44 76.3 °F 61.9 °F 30.08 in SSW 9.0 mph 12.0 mph 61 % 0.00 in
14:49 76.1 °F 62.1 °F 30.08 in South 3.0 mph 10.0 mph 62 % 0.00 in
14:54 76.3 °F 62.2 °F 30.08 in ESE 2.0 mph 10.0 mph 62 % 0.00 in
14:59 76.1 °F 62.1 °F 30.08 in SE 1.0 mph 10.0 mph 62 % 0.00 in
15:04 75.9 °F 62.4 °F 30.08 in SSE 4.0 mph 9.0 mph 63 % 0.00 in
15:09 76.3 °F 62.2 °F 30.08 in ESE 5.0 mph 9.0 mph 62 % 0.00 in
15:14 76.1 °F 62.1 °F 30.08 in ESE 3.0 mph 9.0 mph 62 % 0.00 in
15:19 75.6 °F 62.1 °F 30.08 in SSE 3.0 mph 9.0 mph 63 % 0.00 in
15:24 75.0 °F 62.1 °F 30.08 in SE 5.0 mph 10.0 mph 64 % 0.00 in
15:29 74.5 °F 61.9 °F 30.08 in SE 3.0 mph 10.0 mph 65 % 0.00 in
15:34 74.5 °F 62.4 °F 30.08 in ESE 3.0 mph 10.0 mph 66 % 0.00 in
15:39 74.1 °F 62.1 °F 30.09 in NE 1.0 mph 7.0 mph 66 % 0.00 in
15:44 74.1 °F 62.4 °F 30.09 in ESE 3.0 mph 7.0 mph 67 % 0.00 in
15:49 73.9 °F 62.2 °F 30.08 in South 3.0 mph 7.0 mph 67 % 0.00 in
15:54 73.8 °F 62.6 °F 30.08 in East 4.0 mph 7.0 mph 68 % 0.00 in
15:59 73.8 °F 62.6 °F 30.09 in SE 5.0 mph 7.0 mph 68 % 0.00 in
16:04 73.8 °F 62.6 °F 30.09 in SSE 2.0 mph 7.0 mph 68 % 0.00 in
16:09 73.8 °F 62.6 °F 30.09 in South 5.0 mph 6.0 mph 68 % 0.00 in
16:15 73.8 °F 62.6 °F 30.08 in South 4.0 mph 8.0 mph 68 % 0.00 in
16:20 73.8 °F 62.6 °F 30.08 in NE 3.0 mph 8.0 mph 68 % 0.00 in
16:25 73.8 °F 62.6 °F 30.08 in ESE 2.0 mph 8.0 mph 68 % 0.00 in
16:30 73.8 °F 62.6 °F 30.08 in SE 4.0 mph 9.0 mph 68 % 0.00 in
16:35 73.2 °F 62.4 °F 30.08 in ESE 4.0 mph 9.0 mph 69 % 0.00 in
16:40 72.9 °F 62.4 °F 30.08 in SSE 3.0 mph 9.0 mph 70 % 0.00 in
16:45 72.3 °F 62.4 °F 30.08 in East 4.0 mph 8.0 mph 71 % 0.00 in
16:50 72.1 °F 62.2 °F 30.08 in SSW 1.0 mph 9.0 mph 71 % 0.00 in
16:55 72.0 °F 62.4 °F 30.08 in Calm   9.0 mph 72 % 0.00 in
17:00 71.8 °F 62.2 °F 30.09 in SSE 4.0 mph 9.0 mph 72 % 0.00 in
17:05 71.6 °F 62.4 °F 30.09 in East 4.0 mph 6.0 mph 73 % 0.00 in
17:10 71.4 °F 62.2 °F 30.09 in South 3.0 mph 6.0 mph 73 % 0.00 in
17:15 71.1 °F 62.4 °F 30.09 in SSE 4.0 mph 6.0 mph 74 % 0.00 in
17:20 70.5 °F 61.9 °F 30.09 in SSE 2.0 mph 7.0 mph 74 % 0.00 in
17:25 70.3 °F 62.1 °F 30.10 in SSW 1.0 mph 7.0 mph 75 % 0.00 in
17:30 70.0 °F 61.7 °F 30.10 in SE 1.0 mph 7.0 mph 75 % 0.00 in
17:35 69.6 °F 61.7 °F 30.10 in SE 3.0 mph 7.0 mph 76 % 0.00 in
17:40 69.4 °F 61.5 °F 30.10 in SE 1.0 mph 7.0 mph 76 % 0.00 in
17:45 69.3 °F 61.7 °F 30.10 in ESE 1.0 mph 6.0 mph 77 % 0.00 in
17:50 68.9 °F 61.3 °F 30.11 in ESE 1.0 mph 3.0 mph 77 % 0.00 in
17:55 68.7 °F 61.5 °F 30.11 in ESE 3.0 mph 6.0 mph 78 % 0.00 in
18:00 68.5 °F 61.3 °F 30.11 in Calm   6.0 mph 78 % 0.00 in
18:05 68.4 °F 61.5 °F 30.11 in SSW 1.0 mph 6.0 mph 79 % 0.00 in
18:10 68.2 °F 61.3 °F 30.11 in SE 3.0 mph 6.0 mph 79 % 0.00 in
18:15 68.0 °F 61.5 °F 30.11 in SE 3.0 mph 6.0 mph 80 % 0.00 in
18:20 67.8 °F 61.3 °F 30.11 in South 2.0 mph 6.0 mph 80 % 0.00 in
18:25 67.6 °F 61.2 °F 30.11 in SE 2.0 mph 5.0 mph 80 % 0.00 in
18:30 67.5 °F 61.3 °F 30.12 in ESE 2.0 mph 5.0 mph 81 % 0.00 in
18:35 67.5 °F 61.3 °F 30.12 in SE 3.0 mph 5.0 mph 81 % 0.00 in
18:40 67.3 °F 61.2 °F 30.12 in SE 1.0 mph 6.0 mph 81 % 0.00 in
18:45 67.3 °F 61.5 °F 30.12 in SE 1.0 mph 6.0 mph 82 % 0.00 in
18:50 67.1 °F 61.3 °F 30.12 in SE 1.0 mph 6.0 mph 82 % 0.00 in
18:55 67.1 °F 61.3 °F 30.12 in SSE 2.0 mph 5.0 mph 82 % 0.00 in
19:00 67.1 °F 61.3 °F 30.11 in SSE 3.0 mph 6.0 mph 82 % 0.00 in
19:05 67.1 °F 61.7 °F 30.11 in SE 2.0 mph 6.0 mph 83 % 0.00 in
19:10 67.1 °F 61.7 °F 30.11 in SSW 1.0 mph 6.0 mph 83 % 0.00 in
19:15 67.1 °F 61.7 °F 30.11 in SE 2.0 mph 6.0 mph 83 % 0.00 in
19:20 67.1 °F 61.7 °F 30.12 in ESE 2.0 mph 6.0 mph 83 % 0.00 in
19:25 67.3 °F 61.9 °F 30.12 in SSE 5.0 mph 7.0 mph 83 % 0.00 in
19:30 67.1 °F 61.7 °F 30.12 in East 1.0 mph 7.0 mph 83 % 0.00 in
19:35 67.1 °F 61.7 °F 30.12 in SE 5.0 mph 8.0 mph 83 % 0.00 in
19:40 67.1 °F 61.7 °F 30.12 in ESE 4.0 mph 8.0 mph 83 % 0.00 in
19:45 67.1 °F 62.1 °F 30.12 in South 2.0 mph 8.0 mph 84 % 0.00 in
19:50 67.1 °F 62.1 °F 30.12 in SSE 1.0 mph 7.0 mph 84 % 0.00 in
19:55 66.9 °F 61.9 °F 30.12 in SE 2.0 mph 6.0 mph 84 % 0.00 in
20:00 66.9 °F 61.9 °F 30.12 in South 1.0 mph 5.0 mph 84 % 0.00 in
20:05 66.7 °F 61.7 °F 30.12 in ESE 2.0 mph 4.0 mph 84 % 0.00 in
20:10 66.7 °F 62.1 °F 30.12 in SE 3.0 mph 6.0 mph 85 % 0.00 in
20:16 66.7 °F 62.1 °F 30.12 in SSE 1.0 mph 6.0 mph 85 % 0.00 in
20:21 66.7 °F 62.1 °F 30.12 in SE 3.0 mph 6.0 mph 85 % 0.00 in
20:26 66.7 °F 62.1 °F 30.12 in SE 3.0 mph 6.0 mph 85 % 0.00 in
20:31 66.7 °F 62.1 °F 30.12 in SE 3.0 mph 6.0 mph 85 % 0.00 in
20:36 66.7 °F 62.1 °F 30.12 in SSE 4.0 mph 6.0 mph 85 % 0.00 in
20:41 66.6 °F 61.9 °F 30.12 in SSE 1.0 mph 6.0 mph 85 % 0.00 in
20:46 66.6 °F 61.9 °F 30.12 in SE 2.0 mph 6.0 mph 85 % 0.00 in
20:51 66.6 °F 61.9 °F 30.12 in SSE 3.0 mph 6.0 mph 85 % 0.00 in
20:56 66.6 °F 61.9 °F 30.12 in SSE 3.0 mph 6.0 mph 85 % 0.00 in
21:01 66.6 °F 61.9 °F 30.12 in SE 2.0 mph 6.0 mph 85 % 0.00 in
21:06 66.6 °F 61.9 °F 30.12 in ESE 5.0 mph 6.0 mph 85 % 0.00 in
21:12 66.6 °F 61.9 °F 30.12 in ESE 6.0 mph 7.0 mph 85 % 0.00 in
21:17 66.4 °F 61.7 °F 30.12 in South 5.0 mph 9.0 mph 85 % 0.00 in
21:20 66.4 °F 61.7 °F 30.12 in ESE 3.0 mph 9.0 mph 85 % 0.00 in
21:24 66.4 °F 61.7 °F 30.12 in SE 5.0 mph 9.0 mph 85 % 0.00 in
21:29 66.4 °F 61.7 °F 30.12 in East 4.0 mph 9.0 mph 85 % 0.00 in
21:34 66.2 °F 61.5 °F 30.12 in SE 4.0 mph 6.0 mph 85 % 0.00 in
21:39 66.2 °F 61.2 °F 30.12 in SSE 4.0 mph 6.0 mph 84 % 0.00 in
21:44 66.0 °F 60.6 °F 30.12 in SSE 5.0 mph 6.0 mph 83 % 0.00 in
21:49 66.0 °F 60.4 °F 30.12 in SSE 5.0 mph 6.0 mph 82 % 0.00 in
21:54 66.2 °F 60.3 °F 30.12 in SSE 1.0 mph 6.0 mph 81 % 0.00 in
21:59 66.0 °F 59.7 °F 30.12 in ESE 3.0 mph 6.0 mph 80 % 0.00 in
22:04 66.0 °F 59.4 °F 30.12 in SE 2.0 mph 6.0 mph 79 % 0.00 in
22:09 66.0 °F 59.4 °F 30.12 in SSE 3.0 mph 5.0 mph 79 % 0.00 in
22:19 65.8 °F 58.5 °F 30.12 in East 7.0 mph 7.0 mph 77 % 0.00 in
22:24 65.8 °F 58.5 °F 30.12 in Calm   7.0 mph 77 % 0.00 in
22:29 65.8 °F 58.5 °F 30.12 in SSE 1.0 mph 7.0 mph 77 % 0.00 in
22:34 65.8 °F 58.5 °F 30.12 in Calm   7.0 mph 77 % 0.00 in
22:39 65.7 °F 58.3 °F 30.12 in Calm   6.0 mph 77 % 0.00 in
22:44 65.5 °F 58.1 °F 30.12 in Calm   5.0 mph 77 % 0.00 in
22:49 65.1 °F 57.7 °F 30.12 in Calm   5.0 mph 77 % 0.00 in
22:54 64.9 °F 57.9 °F 30.12 in ESE 3.0 mph 4.0 mph 78 % 0.00 in
22:59 64.9 °F 57.9 °F 30.12 in SE 2.0 mph 3.0 mph 78 % 0.00 in
23:05 64.8 °F 57.4 °F 30.12 in Calm   5.0 mph 77 % 0.00 in
23:10 64.8 °F 57.4 °F 30.12 in ESE 2.0 mph 5.0 mph 77 % 0.00 in
23:15 64.6 °F 57.6 °F 30.12 in Calm   4.0 mph 78 % 0.00 in
23:20 64.4 °F 57.4 °F 30.12 in Calm   3.0 mph 78 % 0.00 in
23:25 64.2 °F 57.6 °F 30.12 in Calm   2.0 mph 79 % 0.00 in
23:30 64.0 °F 57.7 °F 30.12 in SW 1.0 mph 1.0 mph 80 % 0.00 in
23:35 64.0 °F 58.1 °F 30.13 in Calm   1.0 mph 81 % 0.00 in
23:40 64.0 °F 58.5 °F 30.13 in Calm   1.0 mph 82 % 0.00 in
23:50 63.7 °F 57.7 °F 30.12 in Calm   1.0 mph 81 % 0.00 in
23:55 63.7 °F 57.7 °F 30.12 in Calm   1.0 mph 81 % 0.00 in
Spring, Texas: Villages of Bridgestone
Compliments of Weather Underground - 2.75 mb

Script developed by  Jim McMurry - jmcmurry@mwt.net Adapted for the template by  Wim van der Kuil - Leuven-Template.eu

You find our weather info also at:

UK Metoffice

WeatherCloud

Weather Underground

Mid-South Weather Network

AWEKAS

Citizen Weather Observer Program (CWOP)

HAMweather, WeatherForYou, PWS Weather

Equipment we use:

Weather-station
Davis Vantage Vue

Weather-program
Meteohub

Weather-server
Debian 7.9 x86 (Guest)

Provider
DreamHost

Davis Vantage Vue

Meteohub

Debian 7.9 x86 (Guest)

DreamHost